Location: Unspecified
(35.7250°N, 0.0000°E)
Time: 09:15:14
(UTC+00:00)

SR - Pass Details

Date: 25 June 2019
Orbit: 580 x 876 km, 66.7° (Epoch: 17 July)

Event Time Altitude Azimuth Distance (km) Brightness Sun altitude
Exits shadow 04:03:21 - 269° (W) 2,300 ? -8.0°
Reaches altitude 10° 04:05:19 10° 290° (WNW) 1,898 ? -7.6°
Maximum altitude 04:06:53 12° 312° (NW) 1,791 ? -7.4°
Drops below altitude 10° 04:08:29 10° 334° (NNW) 1,918 ? -7.1°
Sets 04:12:14 0° 7° (N) 2,862 ? -6.5°
